| time (UTC) | temp C | wind direction | speed KPH | gust KPH | rain 1hr cm | rain 24hr cm | rain mn cm | humidity % | barometer mb |
| 20260503224541 | 25 | 259 | 1.6 | 14.5 | 0.00 | 0.00 | 0.00 | 39 | 1012.6 |
| 20260503223036 | 26 | 281 | 1.6 | 14.5 | 0.00 | 0.00 | 0.00 | 41 | 1012.8 |
| 20260503221536 | 25 | 277 | 3.2 | 12.9 | 0.00 | 0.00 | 0.00 | 41 | 1013.0 |
| 20260503220035 | 25 | 329 | 4.8 | 14.5 | 0.00 | 0.00 | 0.00 | 44 | 1013.3 |
| 20260503214543 | 25 | 338 | 4.8 | 14.5 | 0.00 | 0.00 | 0.00 | 43 | 1013.5 |
| 20260503213040 | 25 | 49 | 4.8 | 14.5 | 0.00 | 0.00 | 0.00 | 41 | 1013.5 |
| 20260503211548 | 25 | 58 | 3.2 | 11.3 | 0.00 | 0.00 | 0.00 | 43 | 1013.4 |
| 20260503210036 | 25 | 22 | 3.2 | 9.7 | 0.00 | 0.00 | 0.00 | 43 | 1013.6 |
| 20260503204537 | 24 | 0 | 1.6 | 14.5 | 0.00 | 0.00 | 0.00 | 43 | 1013.7 |
| 20260503203044 | 24 | 0 | 3.2 | 9.7 | 0.00 | 0.00 | 0.00 | 45 | 1013.9 |
| 20260503201542 | 24 | 230 | 3.2 | 14.5 | 0.00 | 0.00 | 0.00 | 44 | 1014.0 |
| 20260503200054 | 24 | 67 | 3.2 | 6.4 | 0.00 | 0.00 | 0.00 | 46 | 1014.2 |
| 20260503194542 | 23 | 323 | 3.2 | 11.3 | 0.00 | 0.00 | 0.00 | 44 | 1014.5 |
| 20260503193040 | 23 | 286 | 1.6 | 8.0 | 0.00 | 0.00 | 0.00 | 46 | 1014.6 |
| 20260503191542 | 23 | 352 | 1.6 | 9.7 | 0.00 | 0.00 | 0.00 | 48 | 1014.9 |
| 20260503190047 | 23 | 69 | 1.6 | 17.7 | 0.00 | 0.00 | 0.00 | 50 | 1015.2 |
| 20260503184552 | 22 | 303 | 3.2 | 12.9 | 0.00 | 0.00 | 0.00 | 52 | 1015.4 |
| 20260503183043 | 22 | 324 | 4.8 | 17.7 | 0.00 | 0.00 | 0.00 | 50 | 1015.5 |
| 20260503181559 | 21 | 300 | 3.2 | 14.5 | 0.00 | 0.00 | 0.00 | 51 | 1015.4 |
| 20260503180051 | 21 | 42 | 1.6 | 12.9 | 0.00 | 0.00 | 0.00 | 54 | 1015.7 |
| 20260503174545 | 21 | 305 | 3.2 | 14.5 | 0.00 | 0.00 | 0.00 | 54 | 1015.7 |
| 20260503173053 | 21 | 302 | 3.2 | 14.5 | 0.00 | 0.00 | 0.00 | 55 | 1015.6 |
| 20260503171540 | 21 | 31 | 1.6 | 11.3 | 0.00 | 0.00 | 0.00 | 54 | 1015.8 |
| 20260503081544 | 12 | 0 | 0.0 | 3.2 | 0.00 | 0.00 | 0.00 | 75 | 1016.2 |
| 20260503071542 | 13 | 344 | 0.0 | 1.6 | 0.00 | 0.00 | 0.00 | 72 | 1016.1 |
| 20260503054537 | 15 | 0 | 0.0 | 1.6 | 0.00 | 0.00 | 0.00 | 66 | 1016.1 |
| 20260503053036 | 15 | 0 | 0.0 | 3.2 | 0.00 | 0.00 | 0.00 | 65 | 1016.1 |
| 20260503051541 | 15 | 0 | 0.0 | 0.0 | 0.00 | 0.00 | 0.00 | 63 | 1016.1 |
| 20260503050041 | 16 | 0 | 0.0 | 3.2 | 0.00 | 0.00 | 0.00 | 62 | 1016.1 |
| 20260503044535 | 16 | 0 | 0.0 | 1.6 | 0.00 | 0.00 | 0.00 | 59 | 1015.9 |
| 20260503043040 | 17 | 0 | 0.0 | 1.6 | 0.00 | 0.00 | 0.00 | 56 | 1015.7 |
| 20260503041540 | 18 | 0 | 0.0 | 8.0 | 0.00 | 0.00 | 0.00 | 53 | 1015.4 |
| 20260503040034 | 18 | 14 | 1.6 | 11.3 | 0.00 | 0.00 | 0.00 | 53 | 1015.4 |
| 20260503034535 | 18 | 329 | 1.6 | 8.0 | 0.00 | 0.00 | 0.00 | 52 | 1015.3 |
| 20260503033038 | 19 | 302 | 1.6 | 11.3 | 0.00 | 0.00 | 0.00 | 51 | 1015.0 |
| 20260503031538 | 20 | 0 | 1.6 | 9.7 | 0.00 | 0.00 | 0.00 | 50 | 1014.7 |
| 20260503030052 | 20 | 295 | 1.6 | 8.0 | 0.00 | 0.00 | 0.00 | 50 | 1014.7 |
| 20260503024540 | 20 | 0 | 3.2 | 12.9 | 0.00 | 0.00 | 0.00 | 49 | 1014.6 |
| 20260503023035 | 20 | 0 | 3.2 | 16.1 | 0.00 | 0.00 | 0.00 | 48 | 1014.5 |
| 20260503021536 | 20 | 328 | 0.0 | 14.5 | 0.00 | 0.00 | 0.00 | 50 | 1014.6 |
| 20260503020032 | 21 | 5 | 3.2 | 14.5 | 0.00 | 0.00 | 0.00 | 50 | 1014.6 |
| 20260503014547 | 21 | 325 | 1.6 | 9.7 | 0.00 | 0.00 | 0.00 | 53 | 1014.7 |
| 20260503013038 | 21 | 303 | 3.2 | 12.9 | 0.00 | 0.00 | 0.00 | 53 | 1014.7 |
| 20260503011547 | 21 | 34 | 4.8 | 22.5 | 0.00 | 0.00 | 0.00 | 54 | 1014.9 |
| 20260503010035 | 21 | 325 | 4.8 | 14.5 | 0.00 | 0.00 | 0.00 | 54 | 1014.9 |
| 20260503004536 | 21 | 317 | 4.8 | 17.7 | 0.00 | 0.00 | 0.00 | 53 | 1015.0 |
| 20260503003050 | 22 | 20 | 1.6 | 12.9 | 0.00 | 0.00 | 0.00 | 55 | 1015.0 |
| 20260503001540 | 22 | 55 | 1.6 | 9.7 | 0.00 | 0.00 | 0.00 | 55 | 1015.1 |
| 20260503000037 | 22 | 278 | 3.2 | 12.9 | 0.00 | 0.00 | 0.00 | 55 | 1015.1 |
| 20260502234538 | 22 | 355 | 6.4 | 17.7 | 0.00 | 0.00 | 0.00 | 55 | 1015.3 |
| 20260502233035 | 22 | 5 | 8.0 | 19.3 | 0.00 | 0.00 | 0.00 | 54 | 1015.5 |
| 20260502231541 | 22 | 329 | 3.2 | 9.7 | 0.00 | 0.00 | 0.00 | 55 | 1015.6 |
| 20260502230032 | 22 | 306 | 4.8 | 19.3 | 0.00 | 0.00 | 0.00 | 57 | 1015.9 |